This demonstration page uses our WeatherBlox Daily Observations layout. Learn more.

Left ArrowRight Arrow

39.51506, -84.39828

Hourly Observations for March 19, 2018

Temp ( °F °C ) Dew Point ( °F °C ) Humidity (%) Winds ( mph kmh ) Pressure ( in mb ) Visibility ( mi km ) Precip ( " mm )
12:15 am 00:15 Clear 32 0.2 26 -3.2 78 78 NNE 3 6 29.94 1014 10 16.0934 N/A
12:35 am 00:35 Clear 31 -0.6 26 -3.3 82 82 N 3 6 29.94 1014 10 16.0934 N/A
12:55 am 00:55 Clear 32 -0.2 26 -3.1 81 81 N 3 6 29.94 1014 10 16.0934 N/A
1:15 am 01:15 Clear 32 -0.2 26 -3.2 80 80 N N/A 29.94 1014 10 16.0934 N/A
1:35 am 01:35 Clear 31 -0.5 26 -3.2 82 82 NNE 5 7 29.94 1014 10 16.0934 N/A
1:55 am 01:55 Clear 30 -0.9 26 -3.2 85 85 N N/A 29.94 1014 10 16.0934 N/A
2:15 am 02:15 Clear 32 0.1 27 -2.6 82 82 NE 3 6 29.94 1014 10 16.0934 N/A
2:35 am 02:35 Clear 31 -0.7 27 -2.9 85 85 NE 3 6 29.94 1014 10 16.0934 N/A
2:55 am 02:55 Clear 33 0.4 27 -2.6 81 81 NE 3 6 29.94 1014 10 16.0934 N/A
3:15 am 03:15 Clear 30 -1.3 25 -3.7 84 84 NNE 5 7 29.94 1014 10 16.0934 N/A
3:35 am 03:35 Clear 30 -1.2 26 -3.5 85 85 NE 3 6 29.91 1013 10 16.0934 N/A
3:55 am 03:55 Clear 32 -0.1 27 -2.9 82 82 N N/A 29.91 1013 10 16.0934 N/A
4:15 am 04:15 Clear 29 -1.5 26 -3.6 86 86 N N/A 29.91 1013 10 16.0934 N/A
4:35 am 04:35 Clear 30 -1.2 26 -3.3 86 86 N N/A 29.91 1013 10 16.0934 N/A
4:55 am 04:55 Clear 31 -0.5 27 -3 83 83 N N/A 29.91 1013 10 16.0934 N/A
5:15 am 05:15 Clear 31 -0.4 27 -3 83 83 N N/A 29.91 1013 10 16.0934 N/A
5:35 am 05:35 Clear 31 -0.4 27 -2.7 85 85 N N/A 29.91 1013 10 16.0934 N/A
5:55 am 05:55 Clear 31 -0.4 28 -2.4 87 87 NNE 3 6 29.91 1013 10 16.0934 N/A
6:15 am 06:15 Clear 32 0.1 28 -2.2 85 85 NE 5 7 29.91 1013 10 16.0934 N/A
6:35 am 06:35 Clear 32 0.1 28 -2.1 85 85 ENE 3 6 29.91 1013 10 16.0934 N/A
6:55 am 06:55 Clear 32 -0.1 29 -1.9 88 88 ENE 5 7 29.91 1013 10 16.0934 N/A
7:15 am 07:15 Clear 32 -0.1 28 -2 87 87 NE 3 6 29.91 1013 10 16.0934 N/A
7:35 am 07:35 Clear 31 -0.3 28 -2.1 88 88 N N/A 29.91 1013 10 16.0934 N/A
7:55 am 07:55 Sunny 32 0.1 28 -2 86 86 NE 3 6 29.91 1013 10 16.0934 N/A
8:15 am 08:15 Sunny 33 0.6 28 -2.3 81 81 N N/A 29.91 1013 10 16.0934 N/A
8:35 am 08:35 Sunny 33 0.4 29 -1.9 85 85 ENE 3 6 29.91 1013 10 16.0934 N/A
8:55 am 08:55 Sunny 35 1.7 31 -0.3 87 87 NE 3 6 29.91 1013 10 16.0934 N/A
9:15 am 09:15 Sunny 41 4.8 30 -1 66 66 NE 6 9 29.88 1012 10 16.0934 N/A
9:35 am 09:35 Sunny 42 5.7 30 -1.3 61 61 NE 6 9 29.88 1012 10 16.0934 N/A
9:55 am 09:55 Sunny 44 6.4 29 -1.7 57 57 NE 10 17 29.88 1012 10 16.0934 N/A
10:15 am 10:15 Sunny 45 7.3 30 -1.2 55 55 NNE 9 15 29.88 1012 10 16.0934 N/A
10:35 am 10:35 Sunny 47 8.1 30 -1.1 53 53 NNE 9 15 29.88 1012 10 16.0934 N/A
10:55 am 10:55 Sunny 49 9.6 30 -0.9 48 48 NE 7 11 29.88 1012 10 16.0934 N/A
11:15 am 11:15 Sunny 53 11.4 29 -1.4 41 41 ENE 12 19 29.85 1011 10 16.0934 N/A
11:35 am 11:35 Sunny 53 11.4 28 -2 40 40 ENE 10 17 29.85 1011 10 16.0934 N/A
11:55 am 11:55 Sunny 55 12.6 30 -1.3 38 38 ENE 10 17 29.85 1011 10 16.0934 N/A
12:15 pm 12:15 Sunny 56 13.3 29 -1.5 36 36 E 8 13 29.85 1011 10 16.0934 N/A
12:35 pm 12:35 Sunny 56 13.2 29 -1.7 36 36 E 13 20 29.85 1011 10 16.0934 N/A
12:55 pm 12:55 Sunny 57 14 29 -1.9 34 34 E 14 22 29.83 1010 10 16.0934 N/A
1:15 pm 13:15 Sunny 58 14.4 28 -2.3 32 32 E 12 19 29.83 1010 10 16.0934 N/A
1:35 pm 13:35 Sunny 59 15 29 -1.8 32 32 ENE 14 22 29.83 1010 10 16.0934 N/A
1:55 pm 13:55 Hazy 58 14.7 29 -1.8 32 32 ENE 14 22 29.83 1010 3.5 5.63269 N/A
2:15 pm 14:15 Sunny 60 15.3 29 -1.9 31 31 ENE 14 22 29.8 1009 10 16.0934 N/A
2:35 pm 14:35 Sunny 60 15.5 29 -1.7 31 31 ENE 14 22 29.8 1009 10 16.0934 N/A
2:55 pm 14:55 Sunny 60 15.4 28 -2.1 30 30 NE 13 20 29.77 1008 10 16.0934 N/A
3:15 pm 15:15 Sunny 61 15.9 27 -2.7 28 28 E 17 28 29.77 1008 10 16.0934 N/A
3:35 pm 15:35 Sunny 60 15.8 27 -2.6 28 28 ENE 14 22 29.74 1007 10 16.0934 N/A
3:55 pm 15:55 Sunny 61 16.1 25 -4.1 25 25 E 15 24 29.74 1007 10 16.0934 N/A
4:15 pm 16:15 Sunny 59 15.2 24 -4.7 25 25 E 20 31 29.74 1007 10 16.0934 N/A
4:35 pm 16:35 Sunny 59 15.1 24 -4.2 26 26 ENE 16 26 29.71 1006 10 16.0934 N/A
4:55 pm 16:55 Sunny 59 14.8 25 -4.1 27 27 ENE 17 28 29.71 1006 10 16.0934 N/A
5:15 pm 17:15 Sunny 58 14.7 25 -4.1 27 27 ENE 13 20 29.71 1006 10 16.0934 N/A
5:35 pm 17:35 Sunny 58 14.4 25 -4 28 28 E 10 17 29.71 1006 10 16.0934 N/A
5:55 pm 17:55 Sunny 57 14.1 25 -3.9 29 29 ENE 14 22 29.71 1006 10 16.0934 N/A
6:15 pm 18:15 Partly Cloudy 57 13.8 26 -3.2 31 31 ENE 9 15 29.71 1006 10 16.0934 N/A
6:35 pm 18:35 Mostly Cloudy 56 13.6 26 -3.3 31 31 ENE 14 22 29.68 1005 10 16.0934 N/A
6:55 pm 18:55 Mostly Cloudy 56 13.3 26 -3.2 32 32 ENE 16 26 29.68 1005 10 16.0934 N/A
7:15 pm 19:15 Cloudy 55 13 26 -3.4 32 32 NE 20 31 29.68 1005 10 16.0934 N/A
7:35 pm 19:35 Cloudy 52 11.2 30 -0.9 43 43 NE 21 33 29.71 1006 10 16.0934 N/A
7:55 pm 19:55 Cloudy 51 10.7 30 -1 45 45 NE 17 28 29.71 1006 10 16.0934 N/A
8:15 pm 20:15 Cloudy 50 10.2 29 -1.4 45 45 NE 15 24 29.71 1006 10 16.0934 N/A
8:35 pm 20:35 Cloudy 49 9.3 29 -1.7 46 46 NE 15 24 29.74 1007 10 16.0934 N/A
8:55 pm 20:55 Cloudy 47 8.6 28 -2.2 47 47 NE 16 26 29.74 1007 10 16.0934 N/A
9:15 pm 21:15 Cloudy 46 7.6 28 -2.5 49 49 NE 18 30 29.74 1007 10 16.0934 N/A
9:35 pm 21:35 Cloudy 44 6.8 26 -3.2 49 49 NNE 18 30 29.74 1007 10 16.0934 N/A
9:55 pm 21:55 Mostly Cloudy 43 6.2 26 -3.5 50 50 NNE 17 28 29.77 1008 10 16.0934 N/A
10:15 pm 22:15 Cloudy 42 5.3 25 -4.1 51 51 NNE 10 17 29.77 1008 10 16.0934 N/A
10:35 pm 22:35 Cloudy 41 4.8 24 -4.6 51 51 NE 16 26 29.77 1008 10 16.0934 N/A
10:55 pm 22:55 Cloudy 40 4.7 24 -4.4 52 52 NE 14 22 29.77 1008 10 16.0934 N/A
11:15 pm 23:15 Cloudy 40 4.5 24 -4.6 52 52 NE 13 20 29.74 1007 10 16.0934 N/A
11:35 pm 23:35 Cloudy 40 4.4 23 -5 51 51 NE 14 22 29.74 1007 10 16.0934 N/A
11:55 pm 23:55 Cloudy 39 4.1 23 -4.8 53 53 NE 21 33 29.74 1007 10 16.0934 N/A

Powered by AerisWeather